DW1973 Weather Reports


Display with metric or nautical units.
time (UTC)temp
F
wind
direction
speed
MPH
gust
MPH
rain 1hr
in
rain 24hr
in
rain mn
in
humidity
%
barometer
mb
20260507224923 53 9 0.0 0.0 0.00 0.00 0.00 79 1010.1
20260507224431 53 9 0.0 1.0 0.00 0.00 0.00 78 1010.1
20260507223920 53 10 0.0 2.0 0.00 0.00 0.00 80 1010.0
20260507223426 52 10 1.0 2.0 0.00 0.00 0.00 79 1010.0
20260507222937 52 11 0.0 2.0 0.00 0.00 0.00 79 1010.2
20260507222454 52 11 0.0 3.0 0.00 0.00 0.00 77 1010.4
20260507221942 52 10 1.0 3.0 0.00 0.00 0.00 77 1010.4
20260507221433 52 18 0.0 4.0 0.00 0.00 0.00 75 1010.6
20260507220940 53 17 1.0 8.0 0.00 0.00 0.00 71 1010.5
20260507220450 54 17 3.0 11.0 0.00 0.00 0.00 66 1010.8
20260507215921 55 27 5.0 13.0 0.00 0.00 0.00 60 1010.8
20260507215427 57 19 6.0 13.0 0.00 0.00 0.00 53 1010.2
20260507214915 59 17 5.0 17.0 0.00 0.00 0.00 53 1009.9
20260507214426 59 17 7.0 17.0 0.00 0.00 0.00 54 1009.7
20260507213932 59 17 4.0 10.0 0.00 0.00 0.00 54 1009.6
20260507213419 59 17 5.0 15.0 0.00 0.00 0.00 54 1009.7
20260507212932 59 17 6.0 17.0 0.00 0.00 0.00 53 1009.7
20260507212418 59 14 6.0 18.0 0.00 0.00 0.00 53 1009.6
20260507211927 59 17 9.0 18.0 0.00 0.00 0.00 52 1009.7
20260507211417 60 19 7.0 14.0 0.00 0.00 0.00 53 1009.8
20260507210927 60 21 6.0 17.0 0.00 0.00 0.00 55 1009.9
20260507210435 60 20 5.0 17.0 0.00 0.00 0.00 55 1010.0
20260507205927 60 17 5.0 13.0 0.00 0.00 0.00 56 1009.9
20260507205436 60 17 6.0 13.0 0.00 0.00 0.00 55 1009.9
20260507204944 59 17 5.0 16.0 0.00 0.00 0.00 56 1010.0
20260507204432 59 17 8.0 17.0 0.00 0.00 0.00 54 1010.0
20260507203921 59 16 8.0 17.0 0.00 0.00 0.00 54 1010.1
20260507203428 59 17 3.0 13.0 0.00 0.00 0.00 57 1010.1
20260507202944 58 15 6.0 13.0 0.00 0.00 0.00 55 1010.1
20260507202452 58 17 6.0 16.0 0.00 0.00 0.00 59 1010.4
20260507201918 58 18 8.0 16.0 0.00 0.00 0.00 57 1010.6
20260507201430 58 17 5.0 14.0 0.00 0.00 0.00 58 1010.5
20260507200920 57 17 8.0 15.0 0.00 0.00 0.00 57 1010.5
20260507200426 58 16 7.0 19.0 0.00 0.00 0.00 57 1010.6
20260507195938 57 17 11.0 19.0 0.00 0.00 0.00 57 1010.8
20260507195425 57 15 4.0 19.0 0.00 0.00 0.00 59 1011.0
20260507194916 57 15 11.0 19.0 0.00 0.00 0.00 57 1011.1
20260507194420 57 17 8.0 14.0 0.00 0.00 0.00 58 1011.5
20260507193928 57 16 5.0 18.0 0.00 0.00 0.00 59 1011.4
20260507193416 57 16 9.0 18.0 0.00 0.00 0.00 57 1011.5
20260507192928 57 18 7.0 18.0 0.00 0.00 0.00 58 1011.5
20260507192437 57 17 6.0 15.0 0.00 0.00 0.00 58 1011.6
20260507191945 56 17 5.0 17.0 0.00 0.00 0.00 59 1011.7
20260507191435 57 17 8.0 22.0 0.00 0.00 0.00 57 1011.8
20260507190943 56 16 7.0 22.0 0.00 0.00 0.00 58 1011.8
20260507190429 56 17 8.0 22.0 0.00 0.00 0.00 58 1011.8
20260507185942 56 17 10.0 22.0 0.00 0.00 0.00 56 1012.0
20260507185429 57 18 7.0 20.0 0.00 0.00 0.00 56 1011.8
20260507184916 57 15 7.0 20.0 0.00 0.00 0.00 55 1011.8
20260507184425 57 15 9.0 21.0 0.00 0.00 0.00 52 1011.9
20260507183933 57 17 10.0 21.0 0.00 0.00 0.00 50 1011.9
20260507183440 57 17 10.0 19.0 0.00 0.00 0.00 49 1011.9
20260507182925 57 17 7.0 15.0 0.00 0.00 0.00 48 1011.9
20260507182415 58 24 6.0 14.0 0.00 0.00 0.00 47 1011.9
20260507181924 58 22 5.0 16.0 0.00 0.00 0.00 49 1011.8
20260507181434 58 17 7.0 16.0 0.00 0.00 0.00 47 1011.9
20260507180923 57 19 4.0 19.0 0.00 0.00 0.00 48 1012.0
20260507180432 57 17 7.0 19.0 0.00 0.00 0.00 48 1012.0
20260507175923 57 19 6.0 11.0 0.00 0.00 0.00 46 1012.0
20260507175432 57 24 6.0 19.0 0.00 0.00 0.00 44 1012.2
20260507174922 57 19 9.0 19.0 0.00 0.00 0.00 44 1012.2
20260507174431 58 31 7.0 16.0 0.00 0.00 0.00 45 1012.2
20260507173937 58 24 7.0 15.0 0.00 0.00 0.00 44 1012.4
20260507173424 58 27 6.0 15.0 0.00 0.00 0.00 44 1012.4
20260507172915 58 26 4.0 10.0 0.00 0.00 0.00 46 1012.5
20260507172425 57 21 4.0 10.0 0.00 0.00 0.00 47 1012.6
20260507171930 57 16 4.0 9.0 0.00 0.00 0.00 46 1012.7
20260507171443 56 19 4.0 12.0 0.00 0.00 0.00 46 1012.9
20260507170931 56 19 6.0 12.0 0.00 0.00 0.00 47 1013.1
20260507170419 56 22 2.0 13.0 0.00 0.00 0.00 48 1013.3
20260507165932 55 25 4.0 16.0 0.00 0.00 0.00 47 1013.2
20260507165422 55 24 8.0 16.0 0.00 0.00 0.00 46 1013.4
20260507164930 55 23 6.0 15.0 0.00 0.00 0.00 46 1013.4
20260507164441 56 22 5.0 14.0 0.00 0.00 0.00 45 1013.3
20260507163951 55 28 4.0 12.0 0.00 0.00 0.00 45 1013.5
20260507163418 56 28 6.0 12.0 0.00 0.00 0.00 45 1013.6
20260507162928 55 28 5.0 10.0 0.00 0.00 0.00 47 1013.7
20260507162415 55 34 3.0 12.0 0.00 0.00 0.00 47 1013.8
20260507161950 55 30 5.0 11.0 0.00 0.00 0.00 47 1014.0
20260507161440 54 28 3.0 11.0 0.00 0.00 0.00 46 1014.2
20260507160948 54 41 3.0 10.0 0.00 0.00 0.00 46 1014.1
20260507160416 55 33 4.0 7.0 0.00 0.00 0.00 46 1014.3
20260507155948 55 138 2.0 8.0 0.00 0.00 0.00 46 1014.4
20260507155415 54 133 4.0 8.0 0.00 0.00 0.00 47 1014.3
20260507154922 53 159 3.0 8.0 0.00 0.00 0.00 47 1014.3
20260507154426 53 141 5.0 11.0 0.00 0.00 0.00 46 1014.4
20260507153933 53 142 7.0 11.0 0.00 0.00 0.00 44 1014.6
20260507153441 53 184 2.0 4.0 0.00 0.00 0.00 45 1014.5
20260507152926 53 205 1.0 9.0 0.00 0.00 0.00 45 1014.5
20260507152432 52 155 2.0 9.0 0.00 0.00 0.00 48 1014.5
20260507151920 52 360 3.0 9.0 0.00 0.00 0.00 45 1014.7
20260507151431 52 360 3.0 9.0 0.00 0.00 0.00 47 1014.6
20260507150920 52 360 4.0 8.0 0.00 0.00 0.00 48 1014.7
20260507150426 52 360 2.0 10.0 0.00 0.00 0.00 47 1014.8
20260507145916 51 360 4.0 10.0 0.00 0.00 0.00 47 1014.9
20260507145424 51 360 2.0 8.0 0.00 0.00 0.00 49 1014.9
20260507144932 51 360 3.0 7.0 0.00 0.00 0.00 50 1014.9
20260507144436 51 360 2.0 7.0 0.00 0.00 0.00 51 1014.9
20260507143924 50 286 1.0 5.0 0.00 0.00 0.00 53 1015.0
20260507143431 50 266 2.0 7.0 0.00 0.00 0.00 54 1015.1
20260507142924 50 198 3.0 7.0 0.00 0.00 0.00 51 1015.2
20260507142432 49 189 3.0 10.0 0.00 0.00 0.00 53 1015.2
20260507141922 49 207 5.0 10.0 0.00 0.00 0.00 52 1015.2
20260507141434 49 360 4.0 8.0 0.00 0.00 0.00 52 1015.2
20260507140921 49 360 0.0 4.0 0.00 0.00 0.00 56 1015.2
20260507140427 48 27 2.0 4.0 0.00 0.00 0.00 53 1015.1
20260507135939 48 24 2.0 6.0 0.00 0.00 0.00 54 1015.2
20260507135427 48 28 4.0 6.0 0.00 0.00 0.00 55 1015.3
20260507134916 48 26 3.0 6.0 0.00 0.00 0.00 54 1015.3
20260507134420 47 24 2.0 5.0 0.00 0.00 0.00 56 1015.3
20260507133925 47 19 3.0 6.0 0.00 0.00 0.00 56 1015.3
20260507133434 47 32 3.0 6.0 0.00 0.00 0.00 58 1015.4
20260507132924 46 24 3.0 6.0 0.00 0.00 0.00 58 1015.4
20260507132429 46 29 2.0 5.0 0.00 0.00 0.00 58 1015.5
20260507131916 45 67 2.0 4.0 0.00 0.00 0.00 61 1015.5
20260507131427 45 360 2.0 4.0 0.00 0.00 0.00 63 1015.6
20260507130933 44 84 1.0 4.0 0.00 0.00 0.00 67 1015.5
20260507130421 43 44 2.0 4.0 0.00 0.00 0.00 68 1015.6
20260507125930 43 62 0.0 1.0 0.00 0.00 0.00 70 1015.6
20260507125417 42 115 0.0 2.0 0.00 0.00 0.00 71 1015.6
20260507124924 41 290 0.0 2.0 0.00 0.00 0.00 71 1015.6
20260507124437 40 300 0.0 0.0 0.00 0.00 0.00 73 1015.6
20260507123943 40 297 0.0 0.0 0.00 0.00 0.00 75 1015.5
20260507123427 39 298 0.0 0.0 0.00 0.00 0.00 76 1015.4
20260507122955 39 300 0.0 0.0 0.00 0.00 0.00 76 1015.4
20260507122442 39 301 0.0 0.0 0.00 0.00 0.00 78 1015.3
20260507121929 38 302 0.0 0.0 0.00 0.00 0.00 78 1015.3
20260507121421 38 302 0.0 0.0 0.00 0.00 0.00 79 1015.2
20260507120930 37 302 0.0 0.0 0.00 0.00 0.00 79 1015.2
20260507120417 37 302 0.0 0.0 0.00 0.00 0.00 80 1015.1
20260507115929 37 302 0.0 0.0 0.00 0.00 0.00 80 1015.1
20260507115417 36 302 0.0 0.0 0.00 0.00 0.00 81 1015.2
20260507114926 36 308 0.0 0.0 0.00 0.00 0.00 82 1015.1
20260507114433 35 309 0.0 0.0 0.00 0.00 0.00 83 1015.2
20260507113941 35 290 0.0 0.0 0.00 0.00 0.00 83 1015.1
20260507113428 35 293 0.0 0.0 0.00 0.00 0.00 83 1015.1
20260507112938 34 293 0.0 0.0 0.00 0.00 0.00 83 1015.1
20260507112453 34 242 0.0 0.0 0.00 0.00 0.00 82 1015.2
20260507111921 34 246 0.0 0.0 0.00 0.00 0.00 83 1015.0
20260507111432 34 252 0.0 0.0 0.00 0.00 0.00 83 1015.0
20260507110919 34 263 0.0 0.0 0.00 0.00 0.00 83 1015.0
20260507110427 34 252 0.0 0.0 0.00 0.00 0.00 83 1015.1
20260507105918 34 254 0.0 0.0 0.00 0.00 0.00 83 1015.0
20260507105428 34 260 0.0 0.0 0.00 0.00 0.00 83 1015.1
20260507104918 34 259 0.0 0.0 0.00 0.00 0.00 82 1015.0
20260507104426 34 254 0.0 0.0 0.00 0.00 0.00 82 1015.0
20260507103934 34 252 0.0 0.0 0.00 0.00 0.00 82 1015.1
20260507103423 34 261 0.0 0.0 0.00 0.00 0.00 82 1015.2
20260507102933 34 254 0.0 0.0 0.00 0.00 0.00 82 1015.2
20260507102442 34 261 0.0 0.0 0.00 0.00 0.00 82 1015.3
20260507101948 34 247 0.0 0.0 0.00 0.00 0.00 82 1015.1
20260507101420 34 251 0.0 0.0 0.00 0.00 0.00 82 1015.0
20260507100955 34 252 0.0 0.0 0.00 0.00 0.00 82 1015.1
20260507100424 34 256 0.0 0.0 0.00 0.00 0.00 82 1015.0
20260507095933 34 259 0.0 0.0 0.00 0.00 0.00 81 1015.1
20260507095420 34 263 0.0 0.0 0.00 0.00 0.00 81 1015.2
20260507094928 35 263 0.0 0.0 0.00 0.00 0.00 81 1015.2
20260507094419 35 261 0.0 0.0 0.00 0.00 0.00 81 1015.2
20260507093923 35 257 0.0 0.0 0.00 0.00 0.00 81 1015.2
20260507093432 35 261 0.0 0.0 0.00 0.00 0.00 81 1015.1
20260507092922 35 260 0.0 0.0 0.00 0.00 0.00 80 1015.1
20260507092456 35 263 0.0 0.0 0.00 0.00 0.00 80 1015.1
20260507091924 35 273 0.0 0.0 0.00 0.00 0.00 80 1015.2
20260507091416 35 257 0.0 0.0 0.00 0.00 0.00 79 1015.3
20260507090925 35 255 0.0 0.0 0.00 0.00 0.00 78 1015.3
20260507090432 35 257 0.0 0.0 0.00 0.00 0.00 78 1015.2
20260507085925 35 258 0.0 0.0 0.00 0.00 0.00 78 1015.2
20260507085434 35 263 0.0 0.0 0.00 0.00 0.00 78 1015.2
20260507084923 36 265 0.0 0.0 0.00 0.00 0.00 77 1015.3
20260507084441 36 263 0.0 0.0 0.00 0.00 0.00 77 1015.3
20260507083946 36 259 0.0 0.0 0.00 0.00 0.00 77 1015.3
20260507083433 36 265 0.0 0.0 0.00 0.00 0.00 78 1015.3
20260507082924 36 265 0.0 0.0 0.00 0.00 0.00 78 1015.3
20260507082430 36 264 0.0 0.0 0.00 0.00 0.00 78 1015.2
20260507081919 36 265 0.0 0.0 0.00 0.00 0.00 78 1015.3
20260507081432 36 263 0.0 0.0 0.00 0.00 0.00 78 1015.3
20260507080923 36 264 0.0 0.0 0.00 0.00 0.00 79 1015.2
20260507080431 36 260 0.0 0.0 0.00 0.00 0.00 78 1015.3
20260507075920 36 269 0.0 0.0 0.00 0.00 0.00 78 1015.3
20260507075427 36 271 0.0 0.0 0.00 0.00 0.00 78 1015.3
20260507074934 36 274 0.0 0.0 0.00 0.00 0.00 77 1015.3
20260507074421 36 271 0.0 0.0 0.00 0.00 0.00 77 1015.2
20260507073930 36 273 0.0 0.0 0.00 0.00 0.00 77 1015.3
20260507073418 36 273 0.0 0.0 0.00 0.00 0.00 77 1015.3
20260507072924 36 273 0.0 0.0 0.00 0.00 0.00 77 1015.3
20260507072430 36 271 0.0 0.0 0.00 0.00 0.00 76 1015.3
20260507071919 36 251 0.0 0.0 0.00 0.00 0.00 75 1015.3
20260507071431 37 250 0.0 0.0 0.00 0.00 0.00 75 1015.4
20260507070937 37 261 0.0 0.0 0.00 0.00 0.00 75 1015.4
20260507070446 37 263 0.0 0.0 0.00 0.00 0.00 75 1015.5
20260507065915 37 265 0.0 0.0 0.00 0.00 0.00 74 1015.5
20260507065422 37 263 0.0 0.0 0.00 0.00 0.00 74 1015.4
20260507064932 37 246 0.0 0.0 0.00 0.00 0.00 73 1015.5
20260507064425 37 250 0.0 0.0 0.00 0.00 0.00 73 1015.5
20260507063932 37 250 0.0 0.0 0.00 0.00 0.00 73 1015.5
20260507063441 37 258 0.0 0.0 0.00 0.00 0.00 72 1015.6
20260507062927 38 110 0.0 0.0 0.00 0.00 0.00 72 1015.6
20260507062434 38 103 0.0 0.0 0.00 0.00 0.00 71 1015.6
20260507061943 38 114 0.0 0.0 0.00 0.00 0.00 71 1015.6
20260507061429 38 115 0.0 0.0 0.00 0.00 0.00 71 1015.7
20260507060935 38 108 0.0 0.0 0.00 0.00 0.00 71 1015.6
20260507060423 38 114 0.0 0.0 0.00 0.00 0.00 70 1015.6
20260507055929 38 101 0.0 0.0 0.00 0.00 0.00 70 1015.6
20260507055416 38 90 0.0 0.0 0.00 0.00 0.00 70 1015.6
20260507054924 39 84 0.0 0.0 0.00 0.00 0.00 69 1015.7
20260507054431 39 82 0.0 0.0 0.00 0.00 0.00 69 1015.7
20260507053920 39 82 0.0 0.0 0.00 0.00 0.00 69 1015.6
20260507053436 39 360 0.0 0.0 0.00 0.00 0.00 68 1015.6
20260507052921 39 84 0.0 0.0 0.00 0.00 0.00 68 1015.8
20260507052429 40 69 0.0 0.0 0.00 0.00 0.00 67 1015.6
20260507051927 40 360 0.0 0.0 0.00 0.00 0.00 67 1015.6
20260507051434 40 65 0.0 0.0 0.00 0.00 0.00 67 1015.8
20260507050921 40 72 0.0 0.0 0.00 0.00 0.00 67 1015.8
20260507050434 40 62 0.0 0.0 0.00 0.00 0.00 67 1015.8
20260507050003 41 360 0.0 0.0 0.00 0.00 0.00 66 1015.7
20260507045429 41 360 0.0 0.0 0.00 0.00 0.00 66 1015.6
20260507044917 41 360 0.0 0.0 0.00 0.00 0.00 66 1015.7
20260507044451 41 55 0.0 0.0 0.00 0.00 0.00 65 1015.8
20260507043920 41 54 0.0 0.0 0.00 0.00 0.00 65 1015.6
20260507042932 42 51 0.0 0.0 0.00 0.00 0.00 64 1015.6
20260507042422 42 360 0.0 0.0 0.00 0.00 0.00 62 1015.6
20260507041928 42 40 0.0 0.0 0.00 0.00 0.00 62 1015.7
20260507041439 42 41 0.0 0.0 0.00 0.00 0.00 61 1015.6
20260507040922 43 42 0.0 0.0 0.00 0.00 0.00 60 1015.6
20260507040432 43 42 0.0 0.0 0.00 0.00 0.00 60 1015.6
20260507035919 43 42 0.0 0.0 0.00 0.00 0.00 59 1015.6
20260507035426 43 40 0.0 0.0 0.00 0.00 0.00 59 1015.6
20260507034937 43 40 0.0 0.0 0.00 0.00 0.00 59 1015.6
20260507034456 43 39 0.0 0.0 0.00 0.00 0.00 58 1015.6
20260507033942 44 38 0.0 0.0 0.00 0.00 0.00 58 1015.7
20260507033429 44 34 0.0 0.0 0.00 0.00 0.00 58 1015.8
20260507032921 44 32 0.0 0.0 0.00 0.00 0.00 58 1015.8
20260507032429 44 32 0.0 0.0 0.00 0.00 0.00 58 1015.8
20260507031934 44 34 0.0 0.0 0.00 0.00 0.00 57 1015.8
20260507031442 44 30 0.0 0.0 0.00 0.00 0.00 56 1015.7
20260507030953 45 34 0.0 0.0 0.00 0.00 0.00 55 1015.6
20260507030420 45 34 0.0 0.0 0.00 0.00 0.00 55 1015.6
20260507025931 45 31 0.0 0.0 0.00 0.00 0.00 54 1015.5
20260507025438 45 38 0.0 0.0 0.00 0.00 0.00 54 1015.6
20260507024949 45 35 0.0 0.0 0.00 0.00 0.00 53 1015.5
20260507024417 46 32 0.0 0.0 0.00 0.00 0.00 53 1015.6
20260507023924 46 37 0.0 0.0 0.00 0.00 0.00 53 1015.6
20260507023431 46 34 0.0 0.0 0.00 0.00 0.00 52 1015.5
20260507022922 46 26 0.0 0.0 0.00 0.00 0.00 52 1015.4
20260507022430 46 26 0.0 0.0 0.00 0.00 0.00 52 1015.2
20260507021917 47 24 0.0 2.0 0.00 0.00 0.00 51 1015.2
20260507021445 47 28 0.0 2.0 0.00 0.00 0.00 51 1015.0
20260507020959 47 32 1.0 3.0 0.00 0.00 0.00 50 1015.0
20260507020445 47 360 1.0 3.0 0.00 0.00 0.00 50 1014.9
20260507015936 47 32 1.0 2.0 0.00 0.00 0.00 50 1015.0
20260507015425 47 24 1.0 4.0 0.00 0.00 0.00 50 1014.9
20260507014933 48 24 2.0 4.0 0.00 0.00 0.00 49 1014.9
20260507014444 48 22 2.0 4.0 0.00 0.00 0.00 49 1014.8
20260507013951 48 26 1.0 4.0 0.00 0.00 0.00 49 1014.9
20260507013418 48 24 1.0 4.0 0.00 0.00 0.00 49 1014.8
20260507012922 48 23 2.0 4.0 0.00 0.00 0.00 49 1014.9
20260507012429 48 21 1.0 3.0 0.00 0.00 0.00 48 1014.8
20260507011918 49 19 2.0 3.0 0.00 0.00 0.00 48 1014.8
20260507011432 49 17 2.0 5.0 0.00 0.00 0.00 48 1014.8
20260507010430 49 18 2.0 6.0 0.00 0.00 0.00 47 1014.7
20260507005941 49 18 2.0 6.0 0.00 0.00 0.00 47 1014.6
20260507005428 50 18 2.0 6.0 0.00 0.00 0.00 47 1014.6
20260507004918 50 19 2.0 6.0 0.00 0.00 0.00 47 1014.6
20260507004430 50 17 4.0 6.0 0.00 0.00 0.00 46 1014.6
20260507003918 50 17 4.0 7.0 0.00 0.00 0.00 46 1014.5
20260507003426 51 17 4.0 6.0 0.00 0.00 0.00 46 1014.6
20260507002952 51 18 3.0 8.0 0.00 0.00 0.00 46 1014.6
20260507002440 51 18 3.0 8.0 0.00 0.00 0.00 46 1014.5
20260507001948 51 20 2.0 10.0 0.00 0.00 0.00 46 1014.5
20260507001417 51 20 5.0 10.0 0.00 0.00 0.00 44 1014.4
20260507000923 52 17 3.0 9.0 0.00 0.00 0.00 45 1014.3
20260507000432 52 19 5.0 9.0 0.00 0.00 0.00 44 1014.4
20260506235919 52 22 4.0 10.0 0.00 0.00 0.00 44 1014.1
20260506235428 52 17 5.0 10.0 0.00 0.00 0.00 44 1014.1
20260506234938 52 19 4.0 9.0 0.00 0.00 0.00 44 1014.1
20260506234456 52 16 4.0 10.0 0.00 0.00 0.00 44 1014.1
20260506233926 53 15 3.0 10.0 0.00 0.00 0.00 44 1014.0
20260506233433 53 16 5.0 7.0 0.00 0.00 0.00 44 1013.9
20260506232955 53 15 3.0 9.0 0.00 0.00 0.00 44 1014.0
20260506232424 53 15 3.0 9.0 0.00 0.00 0.00 45 1014.0
20260506231931 53 15 4.0 8.0 0.00 0.00 0.00 44 1013.9
20260506231452 53 15 4.0 8.0 0.00 0.00 0.00 44 1014.0
20260506230939 53 15 5.0 6.0 0.00 0.00 0.00 43 1014.1
20260506230448 54 15 3.0 9.0 0.00 0.00 0.00 43 1013.9
20260506225939 54 15 3.0 9.0 0.00 0.00 0.00 44 1013.7
20260506225447 54 15 3.0 8.0 0.00 0.00 0.00 43 1013.5